Starlink 5672

operational
NORAD ID: 55468 Int'l Des: 2023-015 Owner: SPXS Country: US Constellation: starlink
LEOCIRCULAR

About Starlink 5672

Description loading...

Live Position

Loading 3D Globe...

Upcoming Passes

Altitude History

Altitude vs Time

uPlot chart will show altitude changes over time

Two-Line Element Set

1 55468U 23015V 25346.32242654 .00001744 00000-0 14411-3 0 9997
2 55468 43.0018 80.5471 0001398 261.0845 98.9840 15.02552772157612
Epoch: Dec 12, 2025 • Age: 24 hours

Current Status

Altitude 562.8 km
Velocity 7.59 km/s
Sub-Earth Point 41.73°N, 55.36°W
Launch Date Feb 2, 2023
Age 2.8 years
Type internet

Technical Details

Classification Payload
Mass 305.00 kg
Dry Mass 290.00 kg
Total Mass 305.00 kg
Length 0.20 m
Diameter 2.80 m
Span 9.00 m
Shape Box + pan
Manufacturer SPXS
Bus Type Starlink
Phase Status In Orbit
Owner/State SPXS/US

Large Constellations

Loading constellations...